www.pogodaiklimat.ru

Погода и климат >> Архив погоды >> Украина >> Киев


АРХИВ ПОГОДЫ в Киеве

Время (UTC), дата Ветер
(напр.,м/с)
 
Видим.   Явления Облачность Т
(С)
Тd
(С)
f
(%)
Тe
(С)
Тes
(С)
Комфортность P
(гПа)
Po
(гПа)
Тmin
(С)
Tmax
(С)
R
(мм)
R24
(мм)
S
(см)
15 11.08 Ю 2 20 км ясно +27.4 +11.1 36 +28 +31 жарко 1020.3 1001.2
18 11.08 Ю 2 20 км ясно +22.0 +13.1 57 +25 +25 комфорт 1020.2 1000.8 +28.9
21 11.08 Ю 3 20 км ясно +20.2 +11.8 58 +22 +22 комфорт 1019.9 1000.3
00 12.08 Ю 3 20 км ясно +18.2 +9.9 58 +19 +19 тепло 1019.2 999.5
03 12.08 ЮЗ 2 20 км ясно +15.7 +10.0 69 +16 +16 прохладно 1018.8 998.9
06 12.08 З 2 20 км 6/0
[Ac cast Cs]
+23.0 +9.8 43 +25 +29 комфорт 1017.7 998.4 +15.4
09 12.08 З 4 20 км 9/0
[Ac lent]
+26.7 +14.0 46 +29 +32 жарко 1017.7 998.6
12 12.08 СЗ 2 20 км в посл. час ливневой дождь 6/6 600 м
[Cb calv]
+27.3 +18.0 57 +32 +36 очень
душно
1016.9 997.9
15 12.08 З 3 20 км 6/6 1000 м
[Cu med, cong]
+25.7 +17.6 61 +30 +31 душно 1016.4 997.3
18 12.08 СЗ 1 20 км 4/0
[Ci fib]
+23.5 +13.0 52 +26 +26 жарко 1016.9 997.6 +28.0 0.0
21 12.08 СЗ 2 20 км ясно +19.3 +11.7 61 +21 +21 комфорт 1017.2 997.6
00 13.08 СЗ 1 20 км ясно +17.8 +12.6 72 +19 +19 тепло 1017.6 997.9
03 13.08 штиль 0 20 км 3/0
[Ci fib]
+16.0 +11.0 72 +16 +16 прохладно 1017.6 997.8
06 13.08 Ю 2 20 км 1/0
[Ci fib]
+21.6 +10.3 49 +23 +29 комфорт 1017.3 997.9 +16.0
09 13.08 Ю 2 20 км 1/1 1000 м
[Cu hum]
+24.9 +12.0 45 +27 +39 жарко 1016.7 997.5
12 13.08 ЮЗ 3 20 км 5/5 1000 м
[Cu med, cong]
+27.3 +13.7 43 +29 +34 жарко 1014.9 995.9
15 13.08 ЮЗ 2 20 км 4/3 1000 м
[Cu hum Ci fib]
+27.6 +14.8 46 +30 +32 жарко 1013.2 994.3
18 13.08 Ю 1 20 км 3/1 600 м
[Cb calv Ac cuf]
+23.0 +15.7 63 +27 +27 душно 1012.9 993.7 +28.8
21 13.08 Ю 2 20 км 4/0
[Ac trans]
+21.8 +16.7 73 +26 +26 душно 1013.1 993.8
00 14.08 Ю 1 20 км 3/0
[Ci fib]
+20.0 +16.7 81 +24 +24 комфорт 1013.2 993.8
03 14.08 С 1 20 км ясно +18.2 +15.7 85 +20 +20 тепло 1013.3 993.8
06 14.08 ЮЗ 1 20 км ясно +24.8 +16.4 60 +28 +35 жарко 1013.6 994.5 +18.0
09 14.08 ЮЗ 2 20 км 3/3 1000 м
[Cu hum]
+30.1 +13.7 37 +32 +41 жарко 1013.3 994.5
12 14.08 ЮЗ 3 20 км 5/5 1000 м
[Cu med, cong]
+31.1 +12.7 32 +32 +37 жарко 1012.7 994.0
15 14.08 ЮЗ 3 20 км ясно +30.8 +13.1 34 +32 +34 жарко 1012.0 993.3
18 14.08 Ю 1 20 км ясно +24.9 +14.4 52 +27 +27 жарко 1012.6 993.5 +31.9
21 14.08 Ю 1 20 км ясно +21.7 +14.8 65 +25 +25 комфорт 1013.1 993.8
00 15.08 ЮЗ 3 20 км ясно +22.4 +13.5 57 +25 +25 комфорт 1013.0 993.7
03 15.08 ЮВ 1 20 км ясно +19.1 +14.3 74 +21 +21 комфорт 1013.2 993.7
06 15.08 З 2 20 км ясно +25.4 +13.3 47 +27 +33 жарко 1013.1 994.0 +18.0
09 15.08 ЮЗ 4 20 км 3/0
[Ci sp]
+30.1 +11.1 31 +30 +39 жарко 1013.2 994.4
12 15.08 З 4 20 км 3/0
[Cc]
+32.0 +10.9 27 +32 +39 жарко 1012.5 993.8
15 15.08 З 3 20 км 1/0
[Ci sp]
+31.7 +11.4 29 +32 +34 жарко 1012.2 993.5
18 15.08 С 4 20 км 6/0
[Ac cast Cs]
+27.7 +14.1 43 +30 +30 жарко 1013.4 994.5 +32.8
21 15.08 СВ 2 20 км 4/0
[Ci fib]
+24.5 +17.7 66 +29 +29 душно 1014.7 995.6
00 16.08 С 5 20 км гроза без осадков 9/6 600 м
[Cb cap Ac lent]
+22.8 +16.4 67 +27 +27 душно 1016.5 997.2
03 16.08 В 1 10 км {гроза, ливн. осадки} 8/4 600 м
[Cb cap Ac lent Ci ing]
+18.6 +17.3 92 +21 +21 комфорт 1016.0 996.5
06 16.08 С 2 10 км {гроза, ливн. осадки} 9/4 600 м
[Cb cap Ac lent Cs]
+20.7 +18.6 88 +25 +27 комфорт 1016.9 997.5 +18.1 5
09 16.08 С 3 20 км 9/0
[Ac lent]
+21.8 +18.0 79 +26 +30 душно 1017.5 998.1
12 16.08 СВ 4 20 км 9/0
[Ac As]
+24.4 +16.3 61 +28 +31 душно 1017.3 998.1
15 16.08 СВ 3 20 км 9/0
[Ci]
+25.4 +16.9 59 +29 +31 душно 1016.8 997.7
18 16.08 СВ 2 20 км 9/0
[Ac lent]
+22.6 +16.7 69 +27 +27 душно 1017.5 998.2 +25.6
21 16.08 С 1 20 км ясно +20.6 +16.7 78 +25 +25 комфорт 1017.8 998.3
00 17.08 СЗ 1 10 км 8/0
[Ci fib]
+19.3 +17.5 89 +22 +22 комфорт 1018.3 998.8
03 17.08 СВ 2 10 км 8/0
[Ac trans Ci fib]
+19.9 +17.3 85 +23 +23 комфорт 1017.8 998.3
06 17.08 В 1 20 км 9/0
[Ac As]
+22.4 +17.6 74 +27 +29 душно 1018.1 998.8 +18.9
09 17.08 СВ 2 20 км 9/0
[Ac As Ci fib]
+24.2 +16.8 63 +28 +33 душно 1017.8 998.6
12 17.08 В 2 20 км 8/1 1000 м
[Cu hum Ac trans Ci]
+28.3 +15.9 47 +31 +37 душно 1017.4 998.4
15 17.08 СВ 3 20 км 9/1 1000 м
[Cu hum Ac trans Ci fib]
+27.4 +16.3 51 +31 +32 душно 1016.5 997.5
18 17.08 СВ 2 20 км 4/0
[Ci fib]
+24.6 +17.6 65 +29 +29 душно 1016.9 997.7 +28.6
21 17.08 СВ 1 20 км 5/0
[Ci fib]
+22.7 +16.9 70 +27 +27 душно 1017.2 997.9
00 18.08 В 1 20 км 5/0
[Ci fib]
+20.5 +17.1 81 +25 +25 комфорт 1017.4 997.9
03 18.08 В 1 20 км 9/0
[Ac trans Cc]
+19.3 +16.7 85 +22 +22 комфорт 1017.9 998.4
06 18.08 Ю 2 20 км 9/0
[Ac trans Cc]
+21.1 +17.4 79 +25 +27 комфорт 1019.1 999.7 +18.9
09 18.08 В 2 20 км 8/4 600 м
[Cb cap As trans Cc]
+25.2 +17.6 63 +29 +35 душно 1018.6 999.4
12 18.08 СЗ 3 20 км гроза без осадков 8/6 600 м
[Cb cap Cs]
+27.5 +18.1 57 +32 +35 очень
душно
1018.3 999.3

 

Местоположение метеостанции Киев (город Киев, Украина): широта 50.40 долгота 30.57 высота над уровнем моря 167 м.

В архиве по умолчанию представлена погода в Киеве за последнюю неделю. Архивные данные за месяц целиком и за предыдущие месяцы, начиная с января 2011 года, Вы можете получить, выбрав интересующий диапазон дат из раскрывающегося списка и нажав кнопку "Ввод!".


*Определитесь, кто Вы:
робот инопланетянин человек

Внимание! Время в таблицах - всемирное. Для получения местного времени необходимо прибавить поправку, которая в Киеве равна 2 ч.

Смотрите также архив погоды в соседних городах и на ближайших метеорологических станциях:

Погода в Вышгороде (Киевская область, Украина) (21 км)
Погода в Борисполе (Киевская область, Украина) (29 км)
Погода в Барышевке (Киевская область, Украина) (54 км)
Погода в Фастове (Киевская область, Украина) (58 км)
Погода в Остере (Черниговская область, Украина) (65 км)
Погода в Тетереве (Киевская область, Украина) (78 км)
Погода в Белой Церкви (Киевская область, Украина) (79 км)
Погода в Мироновке (Киевская область, Украина) (87 км)
Погода в Яготине (Киевская область, Украина) (90 км)
Погода в Чернобыле (Киевская область, Украина) (101 км)

Пояснения к столбцам:

Ветер - указаны скорость ветра в м/с - средняя за 10 мин, порывы в срок и между сроками (в фигурных скобках) и направление, откуда дует ветер: С - северный, СВ - северо-восточный, В - восточный, ЮВ - юго-восточный, Ю - южный, ЮЗ - юго-западный, З - западный, СЗ - северо-западный.
Видимость - горизонтальная дальность видимости в метрах или километрах. При видимости от 1 до 10 км при отсутствии осадков обычно наблюдается дымка, при ухудшении видимости до 1 км и менее - туман. В сухую погоду видимость может ухудшаться дымом, пылью или мглою.
Явления - указаны атмосферные явления, наблюдавшиеся в срок или в последний час перед сроком; фигурными скобками обозначены явления, наблюдавшиеся между сроками (за 1-3 часа до срока); квадратными скобками обозначены град или гололедные отложения с указанием их диаметра в мм.
Облачность - указаны через наклонную черту общая и нижняя облачность в баллах и высота нижней границы облаков в метрах; квадратными скобками обозначены формы облаков: Ci - перистые, Cs - перисто-слоистые, Cc - перисто-кучевые, Ac - высококучевые, As - высокослоистые, Sc - слоисто-кучевые, Ns - слоисто-дождевые, Cu - кучевые, Cb - кучево-дождевые. Подробнее классификацию облаков см. в Атласе облаков (PDF).
T - Температура воздуха - температура, измеренная на высоте 2 м над землей.
Td - Температура точки росы - температура, при понижении до которой содержащийся в воздухе водяной пар достигнет насыщения.
f - Относительная влажность воздуха - влажноcть воздуха, измеренная на высоте 2 м над землей.
Te - Эффективная температура - температура, которую ощущает одетый по сезону человек в тени. Характеристика душности погоды. При расчете учитывается влияние влажности воздуха и скорости ветра на теплоощущения человека.
Tes - Эффективная температура на солнце - температура, которую ощущает человек, с поправкой на солнечный нагрев. Характеристика знойности погоды. Зависит от высоты солнца над горизонтом, облачности и скорости ветра. Ночью, в пасмурную погоду, а также при ветре 12 м/с и более поправка равна нулю.
P - Атмосферное давление - приведенное к уровню моря атмосферное давление.
Po - Атмосферное давление - измеренное на уровне метеостанции атмосферное давление.
Tmin - Минимальная температура - минимум температуры воздуха на высоте 2 м над землей.
Tmax - Максимальная температура - максимум температуры воздуха на высоте 2 м над землей.
R - Количество осадков - Количество выпавших осадков за период времени, мм. При наведении курсора мыши на число - период времени, за который выпало указанное количество осадков.
R24 - Количество осадков - Количество выпавших осадков за 24 часа, мм.
S - Снежный покров - Высота снежного покрова, см. При наведении курсора мыши на число - состояние снежного покрова и степень покрытия местности в баллах.